Overview Statistics Trail Chart Weather Telemetry Raw packets
 

This is the latest recevied weather packets stored in our database for station/object WC4PEM-4. If no packets are shown the sender has not sent any weather packets the latest 10 day(s).

<< 79 80 81 82 83 84 85 >>
Time Temp. Humidity Pressure Rain* Wind** Luminosity Snow
1788200181 33.89° C 59% 1015.8 hPa 0 mm - - -
1788200135 33.89° C 57% 1015.9 hPa 0 mm - - -
1788199881 33.89° C 57% 1015.9 hPa 0 mm - - -
1788199705 33.89° C 57% 1016 hPa 0 mm - - -
1788199581 33.89° C 57% 1016 hPa 0 mm - - -
1788199281 34.44° C 57% 1016.1 hPa 0 mm - - -
1788198981 33.89° C 55% 1016.3 hPa 0 mm - - -
1788198694 34.44° C 56% 1016.3 hPa 0 mm - - -
1788198381 33.89° C 56% 1016.3 hPa 0 mm - - -
1788198081 33.89° C 57% 1016.3 hPa 0 mm - - -
1788197781 33.33° C 59% 1016.5 hPa 0 mm - - -
1788197481 33.33° C 58% 1016.6 hPa 0 mm - - -
1788197342 33.33° C 62% 1016.7 hPa 0 mm - - -
1788197181 33.33° C 62% 1016.7 hPa 0 mm - - -
1788196881 32.78° C 63% 1016.9 hPa 0 mm - - -
1788196281 32.22° C 68% 1016.7 hPa 0 mm - - -
1788195981 31.67° C 69% 1016.8 hPa 0 mm - - -
1788195681 31.67° C 69% 1017 hPa 0 mm - - -
1788195381 31.11° C 72% 1017.1 hPa 0 mm - - -
1788195081 31.11° C 70% 1017.3 hPa 0 mm - - -
1788194781 31.11° C 69% 1017.1 hPa 0 mm - - -
1788194481 30.56° C 68% 1017.2 hPa 0 mm - - -
1788194181 30.56° C 70% 1017.3 hPa 0 mm - - -
1788193881 30.56° C 71% 1017.5 hPa 0 mm - - -
1788193735 30.56° C 73% 1017.5 hPa 0 mm - - -

* Rain latest hour (hover to see other rain measurements)
** Current wind speed in m/s (hover to see current wind gust speed)